sat.trackr.live / text

‹ back to catalog

STARLINK-11180 [DTC]

NORAD 60185 · 2024-124C

PAYLOAD ACTIVE UNKNOWN

§ Identity

Operator
Country
US
Launch date
2024-07-03
Launch site
AFETR
Launch vehicle
Mass (kg)
RCS (m²)

Purposes: comms

External: N2YO · Heavens-Above · Gunter

§ Orbital elements

Epoch: 2026-09-21T01:42:31.369824Z

Period
91.74 min
Inclination
53.1570°
Eccentricity
0.0000763
Mean motion
15.69702171 rev/d
Perigee alt
359.2 km
Apogee alt
360.3 km
Semi-major
6,737.9 km
B*
2.9036e-5
RAAN
277.8964°
Arg perigee
355.3273°
Mean anomaly
4.7738°
Rev number
12,722

§ Raw data

STARLINK-11180 [DTC]1 60185U 24124C   26264.07119641  .00002930  00000+0  29036-4 0  99992 60185  53.1570 277.8964 0000763 355.3273   4.7738 15.69702171127222

JSON: /api/v1/satellites/60185 · /tle

For live sub-satellite position, see the globe view (requires WebGL).

§ Visibility from observer

Set your observer location to see the next 7 days of passes ≥ 10°. The values pass through the URL so the page stays shareable.

No JS? Fill the form by hand. The geolocation button needs JavaScript.